RH
59 59 67 76 79 82 81 82 85 82 84 85 77 78 84 82 77 69 70 78 78 77 77 78 77 72 70 72 72 72 71 66 68 68 69 72 74 73 63 57 57 56 54 52 52 52 50 49 48 47 46 47 46 48 52 51 48 46 42 37 37 40 43 47 49 46 41 41 41 38 44 47 48 48 44 46 46 46 45 43 48 51 48 48 49 52 54 48 41 33 23 23 26 26 26 28 36
62 68 76 79 79 84 82 82 82 79 82 82 78 83 87 80 77 76 79 80 76 77 78 80 78 76 77 76 73 69 66 66 64 56 59 69 71 76 72 61 57 55 54 53 51 48 46 45 46 45 44 45 44 45 48 47 44 42 39 33 36 45 50 51 50 46 43 43 39 38 45 47 46 43 41 45 47 47 49 47 48 51 50 47 49 53 53 45 39 38 33 37 40 36 31 25 32
71 76 80 82 81 84 83 84 83 82 82 82 86 86 82 83 86 82 78 78 79 80 79 80 77 80 82 78 76 66 67 69 55 49 64 78 69 72 77 62 56 56 56 56 53 49 47 46 46 45 43 43 43 44 47 49 50 50 47 42 45 53 55 53 50 44 43 47 48 47 47 48 47 45 46 50 48 47 50 51 50 52 53 48 49 54 53 44 35 38 41 44 47 41 32 24 30
74 77 83 85 81 82 84 87 86 84 82 83 88 85 83 86 80 70 70 76 80 80 77 78 80 85 83 82 82 71 74 64 46 50 66 77 71 73 73 60 59 60 59 59 55 49 47 46 45 44 43 44 45 47 52 57 58 54 49 47 51 57 55 48 47 44 42 44 50 54 52 53 53 52 53 51 48 48 50 53 53 51 51 49 51 54 52 45 33 40 47 44 48 42 32 24 29
76 78 80 81 82 84 84 82 85 85 83 82 81 85 89 74 59 63 73 78 78 75 74 78 85 88 82 84 78 68 70 52 42 51 60 69 66 67 64 60 64 63 61 57 52 47 45 46 44 44 43 45 49 48 49 53 53 49 47 46 48 51 50 46 44 44 47 47 49 57 59 59 57 55 53 48 50 52 52 53 53 52 51 48 51 53 51 44 33 39 48 44 46 44 35 26 28
86 87 80 81 83 85 87 84 86 88 86 82 78 86 82 57 57 75 82 82 80 80 81 82 84 82 80 83 74 67 66 48 41 46 54 62 58 59 59 63 67 65 62 52 47 46 45 45 44 43 42 47 50 46 44 45 43 45 52 50 49 50 50 49 45 46 51 52 54 60 63 63 58 55 56 54 54 54 53 54 53 54 51 48 51 52 49 44 34 36 42 42 42 42 40 32 31
88 94 89 91 87 81 86 87 88 87 85 86 87 89 72 57 70 82 84 85 82 85 82 79 75 72 80 84 81 82 69 47 42 45 50 55 54 56 56 62 66 64 57 47 46 46 45 45 42 40 40 46 46 43 43 43 43 47 51 49 51 52 52 52 48 49 51 53 58 62 63 64 61 57 62 60 54 53 54 56 56 53 50 49 51 49 48 41 33 34 40 43 40 40 42 40 39
90 96 92 94 90 81 84 85 82 82 83 84 89 87 65 59 74 79 85 85 84 86 79 81 72 64 83 81 77 86 72 51 46 48 49 52 54 55 54 57 58 56 51 47 47 45 45 41 39 40 40 44 45 46 44 43 48 49 48 48 52 53 53 54 52 54 54 57 61 63 60 60 62 60 64 63 58 57 55 56 55 52 49 50 51 47 45 36 32 34 36 39 37 36 38 40 42
95 96 91 91 88 84 89 87 77 83 85 81 89 82 61 60 73 78 83 83 86 86 78 85 68 56 79 73 74 82 66 52 47 47 51 54 56 55 55 55 55 52 49 47 46 43 41 35 36 42 41 46 51 52 48 47 51 51 53 53 54 57 58 60 61 62 61 62 62 61 58 58 64 63 65 67 64 62 59 59 56 52 50 50 50 46 39 29 28 30 34 36 30 28 33 35 35
98 94 89 89 89 87 91 90 82 85 78 78 91 77 60 64 72 75 79 84 87 85 81 82 60 51 64 60 72 71 52 51 47 48 53 56 58 54 53 57 56 49 48 50 48 43 39 36 38 43 45 49 52 51 51 52 54 53 54 53 58 64 65 69 69 66 66 67 66 63 59 59 65 67 66 66 64 61 61 62 59 54 50 49 49 44 33 24 25 31 37 37 28 27 33 31 28
97 93 89 91 94 86 86 91 88 84 74 81 96 82 66 64 70 76 80 87 88 87 84 76 62 52 51 57 70 58 48 54 48 51 56 58 59 54 55 56 52 48 53 57 53 47 45 44 44 47 48 49 51 53 55 56 56 55 54 57 67 69 67 72 69 67 71 71 74 72 65 62 65 69 66 63 61 60 62 62 59 56 51 49 48 39 30 27 31 38 41 35 28 29 30 28 28
96 94 90 92 87 77 84 94 89 80 74 77 86 87 75 65 66 72 80 87 87 87 83 76 69 52 43 54 59 50 52 55 50 54 56 59 58 53 56 54 52 56 58 60 57 53 52 49 47 48 49 52 55 57 59 59 60 58 58 66 74 71 67 70 68 67 68 68 75 76 71 69 68 70 67 62 58 58 63 61 58 57 51 48 45 36 34 37 39 42 39 31 28 28 28 30 34
95 93 89 90 81 76 88 96 86 71 71 74 79 82 77 76 67 62 79 86 86 87 83 78 65 46 41 50 56 57 58 53 50 53 53 57 56 52 55 52 57 63 61 62 61 58 58 55 53 51 51 56 59 61 61 61 60 58 59 64 67 66 63 62 62 64 64 66 73 73 72 73 71 69 68 61 56 59 61 58 59 56 49 47 45 41 42 44 41 42 37 30 30 31 32 35 39
90 92 92 91 83 78 85 92 87 74 75 77 78 79 77 83 72 64 80 86 89 87 83 80 61 43 37 44 64 70 57 49 48 51 52 54 56 54 54 52 59 67 64 65 64 62 61 58 56 53 52 55 59 61 59 57 56 55 56 57 58 59 60 58 59 62 63 67 67 66 72 73 70 67 65 61 60 64 58 56 60 54 48 48 49 49 48 45 43 45 39 33 34 35 36 39 44
89 92 91 85 79 75 80 87 92 87 83 79 76 79 79 80 76 78 84 83 88 88 85 82 63 44 34 38 59 63 50 47 47 48 50 51 57 56 54 54 58 65 66 65 63 64 63 58 57 55 52 53 56 56 54 55 55 54 55 56 58 58 60 60 60 62 63 68 65 64 68 67 65 64 62 61 63 65 57 55 58 51 48 49 50 50 48 45 45 45 39 36 36 35 36 41 47
91 91 88 85 83 81 78 75 87 90 82 80 74 76 80 78 81 85 81 78 85 90 84 81 73 54 47 46 43 44 44 48 46 44 48 51 57 54 50 52 54 63 68 65 63 61 59 58 58 55 53 53 55 54 54 56 55 55 55 56 60 58 57 58 62 65 65 67 64 62 65 64 63 62 61 61 61 60 54 53 53 48 48 49 49 47 43 43 42 41 38 36 36 34 35 41 48
89 88 86 90 88 87 83 69 80 86 74 76 74 73 76 76 82 81 77 82 84 87 84 84 79 63 65 56 35 37 43 45 44 41 46 49 52 51 46 46 53 66 71 67 63 60 57 58 56 54 56 54 54 56 54 54 54 57 57 55 54 54 56 61 71 71 65 65 64 65 66 64 62 60 60 60 59 58 55 52 49 46 47 46 45 44 42 41 39 40 40 40 39 37 37 43 50
87 88 84 89 87 88 91 79 79 79 69 71 73 75 74 73 80 76 77 82 76 81 86 80 72 70 71 49 31 39 40 41 44 41 43 45 46 48 47 46 52 64 71 70 65 59 60 67 63 55 56 56 56 56 55 53 53 58 60 55 52 60 64 66 74 71 65 67 66 66 65 63 63 61 59 57 57 58 56 53 49 48 47 45 43 43 43 42 42 44 45 44 43 42 42 44 49
84 86 83 87 88 85 89 87 83 78 71 67 69 76 77 74 73 71 75 72 71 83 82 71 72 74 60 36 33 39 38 41 43 43 42 43 45 48 50 49 52 60 68 73 69 61 64 75 70 58 55 58 59 55 56 57 53 56 61 58 58 70 72 64 67 67 67 69 65 64 64 62 62 61 59 58 56 55 54 53 52 50 49 47 45 44 43 42 45 48 48 47 46 49 52 51 50
81 84 85 87 89 88 89 91 89 84 77 69 69 76 79 73 67 71 71 64 73 83 74 73 75 62 42 33 36 36 38 41 41 42 41 45 49 49 51 48 49 58 65 71 69 62 66 73 70 63 58 58 59 55 58 60 55 53 55 59 58 64 72 68 63 60 65 67 63 63 63 61 60 60 62 63 58 53 52 51 51 51 50 48 46 44 43 44 47 48 47 48 51 57 62 63 59
78 81 86 90 94 93 89 91 93 89 83 74 71 76 77 71 69 71 66 63 77 81 74 76 62 40 35 34 34 35 38 41 43 44 44 48 52 52 54 46 44 52 61 69 68 64 66 70 66 62 60 58 57 57 63 61 56 55 51 52 52 55 69 74 67 60 62 66 64 62 61 61 62 63 65 64 60 55 52 52 52 52 51 48 46 45 45 47 49 47 48 53 59 64 65 61 55
75 78 85 92 93 90 88 91 93 88 85 79 74 78 72 69 73 69 66 70 75 80 80 76 52 31 33 34 32 35 37 40 45 47 47 50 53 55 53 44 42 48 58 68 70 67 65 66 65 62 59 57 53 55 62 58 53 55 51 47 46 49 60 67 67 64 60 63 64 63 61 60 61 63 62 60 59 56 55 56 56 52 52 50 46 44 46 49 48 48 51 57 62 61 58 51 41
73 75 83 89 86 87 91 91 90 85 82 77 75 77 69 71 78 75 79 75 64 75 85 78 59 37 33 35 33 35 38 43 48 50 49 53 55 54 50 42 41 48 56 64 70 71 66 64 68 68 62 58 54 54 58 58 55 54 51 50 48 49 55 58 64 67 60 56 59 62 61 58 57 57 55 55 57 57 57 57 54 49 49 49 47 45 48 50 50 53 57 59 54 48 47 43 36
71 73 82 90 84 84 91 89 85 82 77 70 71 72 68 73 74 76 83 70 56 67 82 81 63 44 37 35 35 36 40 47 54 56 53 54 55 54 51 45 43 47 53 60 67 72 70 66 67 69 67 62 56 55 57 59 61 55 49 50 49 50 53 54 57 60 55 49 51 59 60 56 56 55 54 57 59 61 60 55 49 45 46 47 48 48 50 52 54 56 57 55 49 44 39 33 34
65 71 85 91 81 77 82 81 79 79 72 62 70 76 74 73 65 68 69 60 64 68 77 80 63 52 47 43 40 36 43 53 60 68 70 66 66 67 55 44 44 46 51 58 65 71 69 66 65 65 66 63 57 58 59 58 60 56 50 49 48 48 50 51 52 51 49 47 49 58 59 56 57 55 55 59 60 62 60 53 46 46 48 48 49 50 50 54 57 56 55 54 51 45 34 32 40
59 67 84 91 78 70 73 73 73 76 70 62 76 82 77 77 67 64 54 51 72 75 77 77 67 67 64 62 53 42 55 68 72 81 86 80 80 77 55 42 45 45 49 55 63 69 67 67 70 64 64 67 61 58 58 55 56 56 54 55 53 51 48 48 51 49 47 48 50 57 60 60 63 60 58 58 58 60 59 55 52 52 55 52 53 54 53 57 58 57 57 53 49 43 34 37 43
55 63 79 92 83 74 72 71 68 68 69 68 78 79 73 73 70 64 50 55 76 79 81 75 73 77 72 75 65 57 73 80 81 84 88 84 74 66 52 46 47 44 47 52 58 63 63 70 75 68 65 69 67 63 60 55 54 55 56 59 59 54 51 50 50 50 49 49 50 53 56 64 71 70 66 61 58 61 61 62 63 62 60 57 57 59 58 58 59 60 58 50 46 46 39 33 29
50 64 80 91 88 84 77 69 64 61 67 73 76 75 73 70 73 64 47 63 80 79 81 74 75 76 73 80 70 69 82 81 82 83 89 80 59 55 52 49 49 44 47 52 56 57 61 67 68 68 69 70 68 68 67 59 56 58 56 56 57 53 54 54 51 51 53 52 52 53 56 62 68 67 63 61 60 61 62 65 67 62 60 58 59 60 58 57 57 58 56 52 50 47 38 26 21
48 58 73 83 81 80 78 71 68 63 63 69 70 70 71 72 81 67 44 63 80 79 79 73 77 73 75 82 67 73 85 79 78 79 83 67 50 58 55 53 53 43 46 55 55 55 61 61 57 63 69 71 72 71 70 65 61 62 57 54 53 51 53 55 51 49 51 51 52 55 55 54 55 54 54 57 58 58 59 60 60 58 57 55 52 50 48 49 53 56 56 54 50 44 33 23 23
44 49 63 79 78 73 75 74 74 71 66 67 68 72 73 73 82 65 43 61 77 79 78 75 78 72 79 79 64 76 80 71 73 76 74 52 48 64 63 69 61 42 47 55 53 55 59 55 53 58 64 70 73 72 72 68 65 63 60 57 53 50 49 47 44 44 47 48 48 48 47 44 44 47 50 55 57 56 54 53 54 53 51 47 47 48 48 49 54 57 54 50 46 40 31 23 26
42 51 61 75 82 77 75 74 74 74 72 69 70 78 75 70 76 61 44 59 74 79 75 76 78 74 82 73 64 79 71 64 71 70 61 45 54 68 69 82 67 44 50 52 53 59 57 52 50 54 62 69 67 69 72 67 63 61 61 61 57 48 42 38 36 38 40 41 41 38 38 39 40 45 48 52 54 51 47 47 47 44 44 46 50 56 56 56 58 56 53 52 48 38 30 28 31
40 51 60 69 77 78 74 69 71 73 71 68 73 85 79 71 73 56 45 59 75 80 72 75 76 76 83 69 68 77 61 64 68 56 44 43 66 71 68 83 69 51 51 51 57 59 55 54 51 51 58 64 63 66 71 67 63 62 61 63 60 47 38 37 34 34 34 33 34 33 33 35 39 43 44 46 48 45 42 43 43 43 47 46 51 55 54 55 57 54 50 50 45 35 33 37 39
35 38 46 58 68 78 79 68 66 73 74 66 71 86 82 75 72 54 46 58 76 80 71 75 75 78 81 69 76 72 53 65 72 60 43 45 72 70 65 79 71 58 51 51 59 58 54 56 55 52 55 59 60 63 67 66 63 61 59 62 64 51 40 38 33 33 34 31 31 31 31 34 38 40 41 43 43 41 40 40 42 48 48 43 48 52 47 48 54 53 47 46 41 34 38 40 38
29 28 31 45 60 73 81 76 70 72 75 68 67 80 77 73 71 57 48 54 75 83 75 77 74 78 79 69 78 68 52 67 77 72 55 53 71 65 63 73 69 62 52 50 58 58 56 56 56 54 55 56 56 60 63 63 62 61 59 61 63 53 43 39 35 34 35 33 33 32 32 34 37 40 42 44 41 38 37 38 42 46 47 47 51 51 45 44 47 48 44 42 41 40 41 37 40
23 27 32 41 56 66 69 75 77 71 77 77 71 77 76 72 68 62 55 53 71 83 78 79 75 78 78 70 77 67 57 70 78 74 61 61 66 58 59 61 56 53 47 50 56 57 56 57 60 56 54 53 53 60 61 61 63 63 61 60 61 55 46 42 41 40 37 35 35 34 34 35 37 40 42 43 42 42 39 40 42 42 45 49 51 50 48 45 43 46 43 40 45 47 43 38 46
23 25 32 38 50 62 65 72 77 73 83 89 82 83 79 72 68 64 60 57 71 84 80 80 77 77 75 71 77 68 61 71 76 70 65 70 67 55 51 45 40 41 42 50 56 59 57 58 62 57 54 53 51 57 59 59 62 63 61 59 60 57 47 44 46 45 41 38 36 35 35 35 37 39 40 42 46 47 42 41 43 42 44 48 51 50 49 48 45 47 45 43 48 46 39 39 45
27 22 26 36 44 53 61 71 76 71 81 89 87 88 78 69 68 63 61 61 73 86 82 81 79 77 75 71 75 71 64 71 76 70 70 77 70 55 45 38 36 35 38 48 55 61 59 58 62 57 55 52 49 53 55 57 60 62 62 59 61 58 51 49 47 46 45 39 35 36 35 34 36 37 39 44 49 49 45 43 44 43 47 52 51 48 47 49 47 46 45 45 50 45 36 39 43
29 22 24 37 43 47 56 69 72 65 74 81 81 87 83 74 70 64 64 65 75 88 85 82 81 77 76 71 74 76 70 73 77 74 76 75 66 56 44 38 37 32 35 44 52 62 61 58 59 57 56 51 47 50 51 55 58 61 64 62 64 59 54 54 50 50 49 39 35 36 36 34 35 36 38 44 48 49 45 43 45 43 47 50 48 46 45 44 45 45 45 46 52 49 38 37 39
28 26 25 30 37 47 59 71 74 69 76 79 76 86 89 82 75 67 67 69 83 98 87 80 80 78 77 71 74 79 77 79 75 73 81 74 62 57 45 37 38 33 34 40 47 59 62 59 57 56 56 50 46 47 49 54 56 61 64 64 66 61 56 58 56 57 53 41 38 38 37 36 35 36 37 40 43 45 43 40 42 43 43 43 45 48 44 41 43 44 47 49 50 48 39 32 34
28 27 24 24 30 40 54 71 79 73 74 75 75 83 83 82 80 71 67 70 86 100 89 82 81 79 79 73 74 80 79 79 73 72 80 77 66 58 47 41 40 34 33 37 44 54 60 60 56 55 56 53 50 49 51 56 55 58 62 64 67 63 62 63 58 60 57 44 41 42 41 39 38 38 39 41 44 47 46 42 41 42 41 39 41 45 44 43 43 43 49 51 47 44 36 29 31
27 27 24 23 28 35 48 65 76 75 71 70 76 87 86 83 82 75 69 70 80 87 84 86 83 80 81 76 76 82 81 76 75 77 78 79 76 59 46 45 40 36 35 35 41 49 58 60 56 55 57 56 54 51 52 56 55 54 57 59 62 60 59 61 59 62 57 44 43 45 44 43 43 44 43 45 50 50 50 47 43 44 40 38 42 44 44 46 45 46 50 50 48 45 35 32 38
26 26 23 21 22 32 48 57 65 75 77 72 75 88 89 78 74 75 74 75 79 75 71 79 83 82 82 81 81 83 84 78 76 83 79 80 83 63 45 44 39 38 37 35 41 48 54 57 54 53 55 55 53 52 50 52 52 53 51 51 56 56 52 54 60 62 53 43 44 46 44 45 47 47 46 48 50 50 50 48 46 47 42 40 44 45 47 49 48 49 49 49 55 53 41 36 40
25 21 21 20 18 27 43 49 52 62 67 62 61 74 86 81 73 73 75 79 82 73 66 75 83 84 82 84 86 83 86 83 75 83 83 79 83 66 45 43 40 41 42 40 43 47 49 53 52 51 53 53 51 50 49 47 46 49 50 51 55 54 51 54 58 58 53 46 47 46 43 44 48 48 46 47 48 46 48 47 46 48 45 45 46 46 52 52 49 50 49 50 55 55 49 41 38
25 20 18 19 18 19 27 34 38 42 49 52 54 62 74 83 79 73 71 72 74 74 74 80 83 80 78 82 88 85 86 85 74 81 87 78 75 63 48 46 44 45 47 45 46 48 48 48 48 49 50 51 49 47 47 43 42 44 46 51 53 52 56 58 53 53 53 50 50 48 43 42 45 48 46 46 46 44 44 45 45 45 47 52 50 48 53 52 49 52 52 51 49 49 49 44 40
25 22 19 19 19 18 19 23 25 28 35 47 57 55 55 73 83 80 80 74 66 70 76 78 75 69 66 71 84 86 85 84 76 77 80 73 67 58 52 53 51 51 53 50 50 51 48 45 45 47 47 50 48 45 44 42 40 41 43 49 48 51 61 58 53 55 54 53 55 51 48 44 43 47 48 46 46 44 44 46 47 45 48 54 51 48 54 54 51 50 48 46 43 44 47 42 42
25 22 21 20 18 17 17 18 19 21 26 32 40 41 45 70 87 82 85 81 67 64 67 67 65 61 56 61 77 86 84 83 79 76 70 63 62 56 53 57 56 56 59 56 53 51 48 45 44 44 44 48 49 43 41 40 36 36 41 47 47 54 63 57 53 58 57 59 60 54 52 50 45 48 49 46 45 46 46 46 46 44 45 48 48 48 54 55 50 46 44 45 43 42 45 43 43
24 23 23 22 20 18 17 18 18 21 26 25 27 33 37 62 84 77 71 70 62 58 58 58 59 58 56 58 71 82 86 84 79 80 74 61 60 57 54 59 57 56 63 61 52 52 53 47 44 43 41 46 51 45 39 38 34 32 36 45 48 54 62 58 54 56 55 58 58 53 52 49 47 50 50 46 44 47 48 45 47 48 45 46 48 49 53 53 48 43 42 46 45 42 43 45 46
22 23 24 22 21 20 19 20 19 21 25 24 26 33 31 46 72 69 57 58 60 58 55 54 54 54 56 61 66 72 83 87 79 80 81 67 58 53 52 60 58 52 56 56 50 53 60 54 45 43 39 40 48 46 39 36 33 29 32 42 47 50 56 60 60 58 55 56 55 52 50 47 46 49 51 48 43 47 48 43 46 49 45 47 50 48 51 54 50 47 47 47 46 43 42 43 46
20 23 24 22 21 21 21 20 20 20 21 23 27 33 34 43 58 57 52 56 58 59 60 60 57 54 58 62 62 60 70 84 83 80 82 74 61 52 49 54 54 50 51 52 50 51 57 55 48 46 41 37 43 46 40 35 31 28 29 38 44 46 49 53 57 58 55 54 52 50 50 47 47 49 53 53 47 48 49 40 42 47 47 50 52 48 49 51 50 55 55 48 43 42 41 42 42
19 22 23 23 21 23 23 19 20 20 17 21 27 32 41 52 55 52 54 60 61 62 65 66 64 59 59 63 61 61 67 78 83 83 84 82 70 56 51 48 46 47 49 52 52 49 52 53 48 48 45 37 40 45 42 37 31 29 31 37 41 42 43 45 49 51 50 48 47 50 49 47 47 50 56 57 50 48 50 45 43 46 47 48 46 43 44 44 47 54 54 47 44 43 39 39 38
17 20 22 22 19 20 21 17 18 18 16 19 22 30 43 55 61 58 57 68 74 74 72 70 70 66 65 67 62 63 71 73 76 83 87 88 78 61 52 52 49 46 47 52 52 45 47 52 48 46 45 39 38 41 43 40 33 29 32 37 40 39 40 42 45 49 49 45 45 49 49 49 49 49 52 54 51 51 53 52 48 45 45 44 41 39 39 40 41 45 46 44 45 45 40 38 37
15 18 20 20 17 17 17 16 17 15 17 18 19 36 49 53 64 66 63 73 78 77 77 73 74 74 73 76 69 65 72 72 73 82 87 90 85 68 58 57 54 49 47 52 54 44 42 48 47 44 44 41 39 40 42 41 35 32 32 35 40 43 43 43 44 48 50 47 46 50 52 53 53 51 49 50 52 55 57 56 51 45 42 40 39 37 37 39 38 37 40 42 43 42 40 40 39
14 16 18 18 16 15 14 15 17 15 20 18 17 44 60 54 61 63 58 69 73 70 70 66 70 75 75 78 75 70 72 71 73 79 86 93 88 75 70 62 51 48 48 51 52 45 42 48 48 44 43 41 40 41 42 41 37 34 33 34 39 45 49 49 46 45 48 50 51 52 52 52 52 53 52 50 52 53 54 55 52 46 44 40 37 38 38 40 41 38 38 40 41 40 40 41 41
14 12 12 13 13 14 13 14 16 15 19 17 14 40 62 55 60 66 60 68 76 72 66 61 65 70 69 71 71 69 69 72 77 78 83 93 88 76 75 66 50 47 48 50 52 47 45 49 50 46 42 40 41 41 42 42 38 34 34 34 37 43 48 51 52 50 51 54 53 51 49 49 49 51 51 52 54 52 51 54 52 50 50 45 41 41 41 42 43 41 42 42 42 43 42 42 43
14 13 12 11 9 11 13 14 16 15 16 18 12 25 48 51 54 65 68 72 78 74 66 62 62 61 60 62 64 65 65 69 78 82 80 84 81 73 71 66 55 49 49 51 52 48 45 49 52 48 44 43 42 42 43 44 40 35 36 37 37 42 47 49 53 55 54 54 52 50 49 49 51 52 53 56 57 55 54 54 50 51 53 50 46 45 44 43 41 41 43 43 43 43 42 43 45
13 14 14 12 9 10 12 12 15 15 15 19 14 21 48 57 53 59 63 66 73 71 63 61 62 59 56 58 62 65 66 68 75 82 82 77 72 69 67 67 60 52 53 56 52 49 49 52 55 51 48 46 43 42 46 46 42 38 41 42 39 41 47 47 49 53 55 56 55 55 54 53 53 52 52 55 54 54 57 57 52 51 54 52 49 48 48 45 40 39 42 43 44 45 44 43 44
12 14 14 13 10 8 11 10 11 12 14 18 17 34 62 62 54 61 60 60 71 71 63 60 61 58 53 56 64 65 66 69 70 77 82 77 71 67 66 72 70 57 56 59 56 56 57 59 61 56 52 50 44 43 45 46 46 44 44 46 42 40 45 48 48 50 53 58 62 62 59 55 53 52 50 51 52 53 55 55 53 54 55 54 53 51 51 47 41 38 40 43 45 46 45 46 47
11 12 13 13 10 10 11 11 11 9 12 14 14 40 73 65 54 62 63 62 70 68 63 60 57 57 52 53 65 69 68 70 69 74 82 81 75 67 63 71 71 58 55 60 59 60 63 64 65 61 56 52 47 45 46 45 48 49 46 46 46 43 43 44 46 47 49 56 61 61 59 56 55 55 53 52 53 54 54 52 53 57 55 55 55 51 48 47 44 42 43 45 47 47 46 45 44
Wind_Speed
2 3 2 2 3 6 6 5 4 2 2 4 7 10 13 14 16 18 19 18 17 17 14 14 14 14 13 12 13 16 18 19 17 16 21 25 22 17 18 20 19 18 17 18 19 19 18 17 17 16 16 15 14 13 12 12 12 11 10 9 9 8 8 7 7 7 6 6 5 4 5 5 5 5 5 5 5 5 5 6 7 8 9 9 10 11 11 12 13 14 14 15 14 13 13 13 13
2 3 2 3 6 7 5 4 3 2 1 5 9 12 15 16 16 17 17 17 18 17 14 15 17 16 12 12 11 16 19 16 14 19 26 25 22 20 18 18 18 17 16 17 18 18 17 16 15 14 13 13 12 11 10 10 10 10 9 8 7 7 7 6 6 5 4 4 4 3 4 4 4 4 3 4 4 5 5 6 6 7 8 8 10 11 11 11 13 14 14 14 13 12 12 13 13
2 1 3 5 7 6 4 2 2 3 1 7 13 13 15 15 15 16 18 18 18 17 16 17 17 16 12 13 12 15 17 13 14 22 27 22 21 23 19 18 17 16 15 16 16 16 16 15 14 12 11 10 9 9 8 8 9 8 8 7 6 6 5 5 5 4 4 3 3 2 3 3 4 4 4 4 4 5 5 5 6 7 7 8 10 11 11 12 13 14 14 14 13 13 12 13 13
1 2 5 7 6 6 5 4 3 1 5 9 15 16 14 14 16 19 21 19 18 16 16 17 18 17 14 15 15 15 19 18 19 22 25 22 20 21 20 18 17 16 16 15 15 15 14 14 12 10 9 8 7 7 7 8 8 8 7 6 5 4 4 4 3 3 3 3 4 3 3 4 5 6 5 4 4 4 6 6 6 7 7 8 10 12 12 12 13 14 14 13 13 13 12 12 12
3 4 8 8 7 6 5 3 2 4 7 11 16 17 15 15 20 22 21 17 15 14 15 18 20 19 16 16 15 19 23 23 22 20 23 22 18 20 19 18 17 17 16 15 15 14 13 12 11 9 8 7 7 7 6 7 7 6 5 4 3 2 3 3 3 3 3 3 5 5 5 5 6 7 5 5 5 5 6 6 6 7 8 9 11 12 12 13 13 13 13 13 13 12 13 12 12
3 4 6 5 6 6 4 2 2 4 7 13 16 17 18 20 23 22 19 17 15 15 16 17 18 21 22 20 19 20 21 22 22 20 22 22 19 19 19 19 17 16 16 16 15 13 12 10 9 7 6 6 6 6 5 5 5 5 4 2 2 2 2 3 3 3 4 4 5 6 6 6 6 7 6 5 6 7 7 7 6 7 8 10 12 13 12 12 12 12 13 13 12 12 12 12 12
3 5 5 4 5 5 3 4 5 6 9 13 16 18 21 23 23 21 20 18 16 16 15 14 16 23 25 22 22 19 18 19 20 20 20 20 19 19 19 19 17 16 16 15 13 12 10 8 7 6 5 4 4 4 4 5 5 4 3 3 4 3 4 4 4 4 5 5 6 7 7 7 7 7 6 6 6 7 8 7 7 7 9 11 12 13 13 12 12 12 12 12 11 11 11 11 11
5 6 7 7 6 3 2 7 9 9 11 15 16 19 22 22 21 20 19 18 18 17 15 14 14 22 24 20 23 19 17 18 18 19 19 20 20 19 19 18 17 16 14 13 12 10 8 7 6 5 4 4 4 4 5 5 5 6 6 6 6 6 6 5 5 5 6 6 7 7 7 8 7 7 7 7 7 8 8 8 8 8 10 13 13 14 13 12 12 11 11 11 11 10 10 11 10
4 7 10 9 6 4 3 8 10 13 14 15 17 18 21 20 19 19 18 18 19 17 16 16 15 22 25 21 22 20 19 17 17 19 19 21 21 19 19 17 16 14 13 11 10 8 6 5 4 4 4 5 5 5 6 7 7 8 8 8 7 6 6 5 5 5 6 6 6 7 7 8 8 8 9 9 9 9 9 8 9 10 12 14 14 14 14 13 12 11 10 10 10 10 10 10 10
5 7 9 8 7 4 3 8 11 16 16 15 17 18 19 18 17 17 18 19 18 17 17 16 15 20 24 23 22 20 20 19 18 20 20 21 20 18 17 15 14 12 10 9 8 7 5 4 4 4 5 5 6 7 7 9 10 10 9 8 8 7 5 5 5 5 5 6 7 7 7 8 8 9 10 10 9 9 9 9 10 12 14 16 16 15 14 13 12 12 11 10 11 11 11 10 10
7 9 9 10 9 4 4 9 14 17 17 16 16 17 17 17 16 17 19 19 17 18 17 16 18 21 24 23 23 21 19 19 19 20 21 20 18 17 16 14 12 11 9 8 7 5 5 5 5 5 6 7 8 8 9 10 11 11 9 8 8 7 6 5 4 5 6 6 7 8 8 8 9 10 11 10 9 9 9 10 12 14 16 17 17 15 15 14 13 12 11 11 11 11 11 10 10
8 10 9 11 9 2 6 11 16 17 17 17 17 17 16 16 16 17 19 18 18 20 17 17 20 22 23 24 23 22 19 19 19 20 20 19 17 16 16 14 12 11 9 7 6 5 5 6 6 8 9 10 10 10 10 11 12 10 9 8 8 7 6 6 5 6 6 6 8 9 9 9 9 10 10 9 9 10 10 11 14 16 17 18 17 16 15 13 12 12 12 11 10 10 11 10 11
8 11 10 9 8 2 7 12 17 16 17 17 18 19 17 15 15 17 18 17 18 19 18 18 20 20 23 25 23 22 20 20 20 20 20 19 17 16 15 13 11 10 8 7 6 6 6 7 8 9 11 11 10 11 11 11 10 9 8 8 8 7 7 7 7 7 7 7 8 10 11 10 10 10 10 10 11 11 11 13 16 17 18 19 17 15 14 13 12 13 12 11 10 10 11 11 12
7 9 11 7 7 4 5 11 17 17 18 18 18 19 17 15 16 17 17 17 17 17 17 17 17 18 22 25 23 21 21 20 20 20 19 18 16 14 14 13 10 8 7 6 6 7 7 7 8 9 10 11 10 11 11 10 8 7 7 8 8 8 8 8 8 9 9 9 10 11 11 12 11 11 11 11 12 12 12 14 17 18 19 19 17 14 14 13 13 13 12 11 10 11 11 12 12
8 9 11 8 8 6 3 8 15 16 17 18 18 18 17 16 17 18 16 17 19 17 17 16 14 16 20 22 22 22 21 21 20 19 18 17 16 14 13 12 9 7 7 7 7 7 7 7 8 9 9 11 11 11 10 9 8 7 7 9 10 10 10 9 9 10 11 11 11 11 11 13 13 12 13 13 14 14 14 17 19 20 20 18 16 15 14 14 13 13 12 11 11 11 11 12 12
8 9 11 9 8 6 4 6 13 14 16 17 18 19 17 17 18 19 17 17 19 17 16 15 11 12 18 20 21 22 21 21 20 19 18 17 16 13 12 11 9 7 6 7 7 6 6 7 8 9 9 11 12 12 11 9 8 9 9 10 11 10 11 11 11 12 13 13 12 12 13 14 14 14 15 15 15 15 16 19 20 20 19 17 15 14 14 14 13 13 12 12 11 11 11 12 12
8 10 11 9 8 4 3 6 10 11 14 18 20 19 18 19 19 18 17 17 18 18 14 12 11 14 19 19 19 21 21 21 20 19 18 16 15 13 11 10 10 8 6 7 7 6 6 8 9 10 10 11 13 12 11 9 8 10 11 11 11 11 12 13 13 15 14 14 14 15 16 16 16 16 16 16 16 15 16 19 20 19 19 17 15 14 14 13 13 12 12 12 11 11 11 12 13
7 11 11 8 8 7 2 4 8 9 13 18 21 19 19 18 18 18 17 17 17 18 14 13 17 19 19 18 18 20 20 20 20 18 17 16 14 13 11 9 8 8 6 6 8 8 8 8 9 10 10 11 12 12 11 10 10 11 12 12 13 13 14 15 15 16 16 15 16 16 18 18 17 16 17 17 16 16 16 17 18 17 17 16 15 13 13 12 12 12 11 11 12 12 11 11 12
6 9 10 8 11 11 7 6 9 12 16 19 21 20 19 18 18 18 17 17 16 18 17 18 23 21 18 17 18 20 19 19 19 18 17 15 14 12 11 9 8 7 7 7 8 9 8 8 8 9 10 10 12 13 13 11 10 11 12 13 14 15 14 15 16 16 16 16 16 17 19 19 17 17 18 17 16 16 16 17 17 16 15 14 14 13 12 12 12 12 11 12 12 12 12 11 12
6 9 9 10 13 13 9 7 11 15 19 21 22 20 19 18 18 16 16 17 16 18 22 24 25 22 18 17 20 20 19 19 19 18 17 15 13 12 11 10 8 7 7 7 8 9 9 9 9 9 9 9 12 14 15 12 10 11 12 13 14 15 14 14 16 16 15 16 17 17 19 19 19 19 18 18 16 16 16 16 16 15 14 13 13 12 12 12 11 11 12 12 13 12 11 11 10
8 9 9 11 11 10 8 6 14 19 21 22 22 20 19 18 17 15 16 16 17 19 22 24 21 19 19 19 20 19 19 19 19 18 17 15 14 12 11 9 8 8 8 7 7 8 10 10 9 9 9 10 11 13 16 14 11 11 12 14 14 15 14 13 16 17 15 16 17 18 19 20 20 19 18 17 16 16 16 15 15 14 14 13 13 13 13 12 12 12 12 13 13 11 11 10 9
9 9 10 11 9 5 5 9 17 21 23 21 20 19 19 17 15 16 15 15 19 21 21 20 16 17 19 19 19 19 18 18 18 18 17 15 13 12 11 10 9 8 9 8 7 7 9 10 10 10 10 11 11 13 16 14 12 13 12 13 13 14 14 13 16 17 16 17 18 19 19 19 19 18 18 17 16 15 15 15 14 14 14 14 14 14 14 13 12 12 12 13 12 11 11 10 10
8 10 10 9 7 3 4 13 20 24 23 21 19 18 17 16 15 16 14 13 18 22 21 18 17 17 18 18 18 18 18 18 17 17 16 15 13 12 11 10 9 9 9 9 8 7 8 10 10 9 10 12 13 14 15 14 13 13 13 12 12 14 15 14 15 16 16 19 19 18 18 18 17 17 17 17 16 15 15 15 15 15 15 15 15 14 14 13 13 12 12 12 12 12 12 10 10
8 10 9 6 6 9 13 19 24 24 23 21 19 18 16 15 16 16 13 14 16 21 22 19 19 19 18 18 17 18 18 18 17 15 14 13 12 11 11 10 10 9 9 9 9 8 7 8 10 10 10 11 13 14 15 16 14 13 13 13 13 14 15 15 16 16 17 20 20 19 18 16 16 16 16 15 15 15 15 16 16 16 16 16 15 14 14 14 13 13 13 12 12 13 12 11 11
8 9 5 4 9 14 19 23 25 23 22 23 21 18 17 15 15 15 15 17 16 19 23 20 19 20 19 18 17 17 17 16 16 15 14 12 12 11 10 10 9 9 9 9 9 9 7 7 9 10 11 11 13 17 17 17 17 14 14 13 14 14 16 17 17 18 18 19 20 20 18 17 16 14 14 14 14 15 16 16 16 17 16 16 15 15 15 14 14 13 13 13 11 11 13 12 12
7 8 4 4 11 15 18 21 21 20 21 22 21 18 18 15 13 14 15 17 18 20 23 21 21 21 20 19 18 18 17 16 15 16 15 14 13 12 10 9 9 9 9 10 9 9 8 6 7 8 11 13 13 17 19 18 18 16 15 14 13 14 15 17 18 19 19 19 18 18 18 17 16 13 13 14 15 16 16 16 16 16 16 15 15 15 15 14 13 13 13 13 12 12 13 11 12
7 7 2 6 12 14 15 16 16 19 20 20 19 18 17 15 13 15 16 18 20 22 23 22 22 21 20 20 19 18 18 17 16 16 16 15 14 12 10 9 9 8 9 10 10 9 9 8 7 5 8 12 13 17 19 20 19 18 17 14 12 13 14 16 18 18 19 19 17 16 16 15 14 13 13 14 15 16 16 15 15 15 15 14 14 13 13 13 12 12 13 13 13 13 13 12 15
7 5 2 8 12 11 12 13 14 19 20 18 18 17 16 13 12 15 18 20 21 22 23 23 23 22 21 20 19 20 19 19 17 16 16 15 14 11 9 9 9 8 9 10 10 10 9 9 8 6 6 8 9 14 16 17 18 17 18 16 13 12 13 15 16 16 17 17 16 15 14 13 13 13 13 14 15 15 14 14 13 13 13 12 12 11 11 12 12 13 14 13 13 13 13 15 18
11 8 2 9 11 10 10 11 14 16 18 17 17 15 14 13 12 14 18 22 22 22 23 23 22 22 22 21 20 20 19 20 18 16 16 15 13 11 9 8 8 8 9 10 9 9 10 9 8 7 7 7 8 11 13 14 15 16 18 18 16 13 12 12 13 14 15 16 15 14 13 12 13 14 14 14 15 14 14 14 13 12 12 11 12 12 13 13 14 14 14 13 12 14 14 16 19
12 10 4 8 10 10 10 11 13 15 15 15 15 13 13 12 13 16 18 23 25 23 23 23 22 22 22 21 21 21 20 19 18 15 15 14 13 12 10 9 8 8 9 9 9 9 9 9 9 8 8 9 8 10 11 12 12 13 15 16 16 15 13 12 11 12 13 14 14 14 13 13 13 14 14 14 15 14 14 13 13 12 12 12 12 13 14 14 14 14 15 14 12 14 14 16 19
11 8 7 8 7 9 12 12 13 15 14 15 14 11 13 14 14 17 18 23 26 23 23 23 22 22 22 21 20 20 20 18 17 16 15 13 13 11 11 10 9 8 8 8 9 9 9 9 9 9 9 9 9 9 10 11 12 12 13 14 15 15 15 13 12 12 12 13 13 14 14 13 14 14 13 14 14 14 14 13 13 12 12 12 12 12 12 14 14 14 14 14 13 15 14 15 17
12 11 9 9 8 8 12 13 12 13 13 16 15 11 14 15 16 19 19 22 26 24 23 23 22 22 21 20 20 19 19 18 16 16 15 14 13 12 14 12 9 9 9 8 9 8 9 9 8 9 9 9 9 10 10 10 11 12 13 13 13 13 14 14 13 13 12 13 13 14 14 14 14 14 13 14 14 14 14 13 13 13 12 11 12 11 12 14 15 14 14 14 14 16 16 16 14
15 14 11 9 9 10 12 10 12 14 13 16 16 12 15 16 17 20 20 23 26 24 24 23 22 22 21 20 20 18 18 18 16 15 15 15 14 14 16 14 10 9 9 9 9 8 9 9 9 9 9 10 10 10 10 10 11 12 13 13 12 12 13 13 13 13 13 13 13 13 13 14 14 14 14 14 15 14 14 13 12 12 11 12 12 11 12 14 14 14 14 14 15 16 16 16 15
15 15 11 7 8 10 10 9 13 16 15 17 17 14 16 17 19 21 20 23 26 24 24 24 23 22 21 20 20 19 18 19 18 17 16 16 16 15 15 14 11 11 10 10 9 9 10 9 9 9 9 10 10 10 10 10 11 11 12 12 12 12 12 12 12 12 13 12 12 12 13 13 14 14 15 14 14 14 14 13 12 11 11 12 12 12 13 13 14 14 14 14 14 13 14 16 17
10 12 9 6 7 8 9 8 10 14 17 19 20 17 16 19 21 22 21 22 25 25 25 24 23 22 21 20 20 19 19 20 19 19 17 16 16 15 15 15 13 11 10 10 10 9 10 9 10 9 9 10 11 11 10 11 11 11 11 12 12 11 11 12 11 11 11 12 11 11 12 13 14 14 15 14 13 14 14 12 12 11 11 11 12 12 13 13 14 13 13 14 13 11 12 14 15
8 7 8 9 9 6 6 6 6 11 15 18 20 19 19 22 23 23 23 22 23 24 25 25 24 23 21 21 21 20 20 21 20 19 18 16 16 15 15 15 13 12 11 11 10 10 10 10 10 10 10 10 11 11 10 11 11 11 11 11 11 11 11 11 11 11 10 10 11 11 11 12 13 13 14 14 13 13 12 11 11 11 11 10 10 11 12 13 13 13 13 13 12 10 12 13 12
10 9 9 9 11 7 5 5 6 10 14 17 19 19 20 23 25 25 24 23 23 25 27 26 25 25 23 21 22 21 21 21 20 20 19 18 17 16 15 14 13 13 12 11 11 11 11 10 10 11 11 10 12 11 10 11 11 11 11 12 12 11 11 10 11 11 10 10 10 10 11 11 12 12 12 12 12 11 11 10 10 9 9 9 9 11 12 12 12 12 12 11 11 10 12 14 11
12 12 9 5 8 7 5 5 4 8 13 15 17 17 18 23 26 27 26 25 24 24 27 27 25 26 24 23 22 21 21 21 21 21 20 20 19 17 15 14 14 13 11 11 11 11 11 11 10 11 11 11 12 12 11 10 11 11 12 12 12 12 11 10 10 11 10 11 11 11 11 11 12 12 11 11 11 10 10 10 9 9 9 9 10 11 11 12 12 11 10 10 10 9 11 12 10
15 12 11 10 9 9 7 7 6 7 10 10 14 18 18 19 24 27 28 28 26 24 26 27 26 25 25 25 23 22 23 23 23 22 21 21 19 18 16 15 15 13 12 12 11 11 11 11 11 12 12 12 12 13 12 11 11 11 11 12 13 13 12 11 11 11 11 11 11 11 11 11 11 11 11 10 9 9 10 9 9 9 9 9 11 11 11 11 11 11 10 9 9 10 10 10 10
15 13 14 11 11 13 10 10 10 8 7 6 10 15 15 17 22 27 29 28 27 24 24 27 27 26 26 26 23 22 24 24 23 22 22 21 19 18 17 16 15 13 12 13 12 12 11 11 12 12 12 12 12 12 12 11 11 10 10 11 12 12 12 11 11 11 11 11 11 11 11 11 11 10 10 10 9 9 8 8 8 9 9 9 10 11 11 11 10 10 10 9 9 10 11 11 10
14 17 18 7 5 11 12 12 9 8 7 6 9 11 12 18 21 26 30 28 26 25 22 25 27 26 27 26 24 23 24 23 22 22 22 21 19 18 17 16 15 13 13 13 12 12 12 12 12 12 13 12 11 11 11 11 11 11 9 9 11 11 11 11 11 11 11 11 11 11 11 11 11 10 10 9 8 8 8 7 8 8 8 9 9 9 10 10 9 9 10 10 9 8 10 12 10
14 17 21 13 3 5 11 11 9 9 8 7 11 10 7 15 19 22 28 28 28 27 24 24 25 26 26 26 25 24 24 23 23 23 22 21 20 18 16 16 15 14 14 13 13 13 12 12 12 13 13 12 11 11 11 11 11 12 11 10 11 11 12 12 11 12 12 12 11 11 11 11 11 10 10 9 8 8 8 8 8 9 8 9 9 9 9 9 8 8 9 9 8 7 9 11 9
17 14 13 14 9 4 7 7 8 7 6 7 10 10 6 12 19 21 27 29 27 27 27 27 26 26 27 26 25 24 24 24 23 23 22 22 21 18 16 15 15 15 15 14 14 13 13 13 13 13 13 13 12 11 11 11 12 12 12 12 11 11 12 12 11 12 13 13 12 11 11 10 10 10 9 9 8 7 8 8 8 8 8 8 9 9 8 8 8 8 8 8 8 8 8 10 9
18 8 3 8 11 9 8 6 7 6 6 7 10 13 10 12 17 20 24 28 28 28 29 29 28 29 28 25 25 24 24 25 24 23 23 22 21 19 15 15 15 15 15 15 14 14 13 13 13 14 14 13 12 12 12 11 12 13 13 12 12 13 12 12 12 12 12 12 12 11 11 10 9 9 9 9 8 8 8 8 7 7 8 8 8 8 7 7 7 7 8 8 8 8 9 10 8
18 9 6 9 14 10 14 10 10 9 9 12 14 16 11 6 10 16 21 25 28 31 32 30 29 30 29 26 25 26 25 24 23 24 24 23 21 19 16 16 16 15 15 15 14 14 14 14 14 15 14 14 13 12 12 12 12 13 13 13 13 13 13 13 12 11 11 11 11 11 10 10 9 9 8 8 8 9 9 9 8 8 8 8 8 8 7 6 8 8 8 8 8 8 9 11 9
17 12 10 12 12 8 13 13 11 10 10 12 13 14 10 3 8 16 20 23 28 32 32 31 29 28 28 27 26 26 26 25 24 24 24 22 21 19 18 17 17 17 16 15 15 15 14 15 15 15 14 14 13 13 13 13 13 14 14 13 13 13 13 13 13 12 11 11 11 10 9 9 9 9 9 8 8 8 8 9 9 8 8 8 8 7 7 8 9 9 9 8 9 9 9 9 10
16 11 9 11 11 8 9 12 13 10 9 13 12 12 11 5 11 18 15 13 21 28 30 31 31 30 29 29 28 27 27 27 25 24 23 22 22 20 19 18 18 18 17 17 17 16 15 16 15 15 15 15 15 14 15 15 14 15 15 14 14 13 13 13 13 12 12 12 11 11 10 10 9 9 8 9 8 8 8 8 8 8 8 8 8 8 8 9 9 9 9 9 8 8 8 9 9
16 12 9 10 12 12 10 12 13 10 7 11 11 12 13 8 11 16 12 7 13 21 25 28 32 34 32 31 31 28 28 27 25 24 24 24 23 22 20 20 19 19 18 18 17 16 16 16 15 15 15 15 15 15 16 16 16 16 16 15 14 14 13 12 12 12 13 12 11 11 10 10 9 9 9 9 9 9 9 9 8 8 8 8 8 8 8 8 8 7 8 9 9 9 9 8 8
18 13 12 11 10 11 10 9 10 10 10 9 9 10 11 7 6 9 9 9 11 16 19 22 27 34 35 33 31 29 29 28 26 26 26 26 24 23 23 22 21 20 19 19 18 17 17 16 16 16 16 15 15 16 16 17 16 17 17 15 15 14 13 12 12 13 12 12 11 10 10 10 10 10 10 10 10 9 9 9 9 9 8 8 8 8 8 9 8 7 8 9 8 8 8 8 9
19 15 14 12 9 7 7 7 7 9 12 11 10 9 6 5 4 4 8 9 9 11 15 17 20 27 32 33 31 30 30 29 28 28 27 26 25 24 24 23 23 22 21 20 19 18 17 16 17 17 16 16 16 16 17 17 17 17 17 16 15 15 14 13 13 13 12 12 12 12 12 11 12 12 11 10 10 9 9 9 9 9 8 8 8 9 9 9 8 8 8 9 9 8 8 8 9
18 17 17 16 14 10 6 6 6 7 10 11 12 8 3 4 3 3 6 7 8 11 13 15 17 21 26 31 32 31 31 30 29 29 28 28 27 26 24 24 24 23 22 20 20 20 18 17 17 17 17 17 17 17 17 17 18 18 18 17 15 14 14 13 14 13 13 13 13 13 13 12 12 12 11 11 10 10 10 9 9 9 9 9 9 8 9 9 8 8 8 9 10 9 9 9 10
18 17 21 21 17 14 12 11 10 11 10 7 9 6 4 5 6 6 8 11 12 13 12 14 17 19 22 28 32 32 33 32 30 31 30 29 29 27 25 26 24 23 23 22 21 21 19 18 17 17 17 18 18 18 18 18 19 19 19 18 16 15 14 14 14 13 13 13 13 13 13 12 11 11 11 11 11 11 11 10 10 10 9 9 9 9 8 8 9 9 9 9 9 9 8 9 10
12 17 23 22 17 15 15 13 14 14 9 7 8 9 12 8 7 9 11 14 14 13 12 14 16 19 21 25 30 33 34 33 32 33 32 31 31 28 26 27 26 24 24 23 22 21 19 18 18 17 17 18 18 18 18 18 19 20 20 19 17 16 15 15 14 14 13 13 13 13 12 11 11 11 11 11 12 11 11 11 10 10 9 9 10 10 9 9 10 9 9 8 7 8 8 9 9
10 13 17 18 18 17 16 12 10 10 6 8 11 11 17 11 8 12 14 15 15 13 13 15 16 18 19 20 25 30 33 34 34 35 33 32 33 30 28 28 27 24 24 23 23 22 20 18 18 17 18 18 19 19 19 19 19 20 21 20 18 17 16 17 16 16 15 14 13 13 13 12 12 12 11 11 12 11 11 11 10 10 10 10 11 10 10 10 10 9 8 8 7 7 8 8 9
18 13 8 12 17 16 16 12 7 8 6 6 10 9 12 8 8 15 18 15 14 13 13 14 16 17 17 17 20 24 30 34 36 37 36 35 34 30 28 27 26 24 24 24 24 23 21 19 18 18 18 18 19 20 20 19 19 19 20 20 19 18 18 18 17 17 17 16 14 14 13 12 11 12 11 10 10 10 10 11 10 10 10 10 11 11 10 10 10 9 8 8 7 7 8 8 8
22 17 11 12 16 14 16 14 10 9 6 5 8 6 6 6 9 15 16 14 14 15 14 14 17 17 15 17 19 21 26 33 38 40 40 38 35 30 28 26 25 24 24 23 24 23 21 20 19 18 19 19 20 20 20 20 19 19 20 21 21 20 19 19 18 17 17 17 16 15 14 13 12 12 11 10 10 10 11 11 10 10 10 10 10 10 10 10 9 9 8 8 7 7 7 7 7
21 19 14 14 14 12 12 15 16 14 8 6 5 1 4 6 14 15 13 14 17 17 16 15 17 18 16 17 20 22 24 28 35 41 43 41 37 32 29 27 25 24 24 24 23 23 22 21 19 19 20 20 21 21 20 20 20 20 20 21 21 21 21 20 19 18 17 17 16 16 15 13 12 12 12 10 10 11 11 11 10 10 10 10 10 10 10 9 9 9 8 8 8 8 7 7 8
19 20 16 12 12 13 10 10 15 16 12 10 7 1 4 6 14 16 15 17 18 16 14 14 15 17 16 17 19 21 23 24 29 38 44 43 38 33 30 28 26 24 24 25 24 24 24 22 21 20 21 21 21 21 20 21 21 20 20 20 21 21 22 21 21 20 18 18 17 15 14 13 13 13 12 12 11 12 12 11 10 10 10 9 9 9 9 9 9 8 8 8 8 7 7 7 7
Wind_Direction
82 68 37 32 49 44 52 57 46 50 92 113 126 118 115 121 121 121 117 112 107 106 110 106 107 115 123 123 129 134 140 145 142 143 132 132 136 130 129 126 129 130 128 129 128 128 126 124 122 121 120 119 118 114 114 114 111 110 109 108 107 104 100 103 105 107 110 116 123 128 127 125 117 106 100 97 97 108 111 102 90 84 85 90 100 105 107 111 116 118 118 116 114 113 113 114 114
76 86 93 35 36 39 35 49 56 14 355 118 120 117 119 121 118 118 115 114 114 116 114 102 98 97 106 109 120 139 138 140 143 139 129 130 134 131 131 129 130 127 127 128 127 127 125 123 120 118 115 113 112 110 111 109 106 106 106 103 102 106 107 105 102 102 109 120 130 141 136 128 122 112 112 115 112 119 122 114 104 94 92 98 106 109 111 113 115 117 117 115 112 112 114 116 117
55 4 72 36 27 22 4 12 353 328 235 126 117 119 126 127 125 126 124 121 116 116 112 107 101 90 100 106 109 130 123 121 136 131 125 129 133 129 131 132 132 130 130 129 129 128 125 123 118 114 111 108 105 102 102 100 101 98 95 96 103 111 107 99 95 103 118 128 126 137 132 123 129 134 137 135 127 133 140 132 120 111 104 107 114 116 117 118 119 119 119 118 115 114 115 118 120
62 14 55 41 29 18 353 334 327 80 151 134 124 127 130 134 134 129 120 112 112 118 120 115 105 97 104 104 105 117 114 120 134 129 123 129 130 125 130 132 135 135 133 131 129 127 124 121 117 115 111 103 97 93 95 99 98 89 82 83 95 106 102 101 101 113 128 137 142 147 136 135 145 146 147 146 144 148 149 146 135 124 116 117 122 123 122 123 125 124 123 124 121 118 118 121 122
80 63 59 43 29 21 4 350 10 116 144 140 133 131 132 138 129 120 111 110 121 123 117 107 101 102 100 100 105 111 116 126 134 131 125 128 128 126 130 133 137 137 135 134 130 127 124 120 116 112 101 91 86 88 91 90 84 74 66 68 87 100 107 112 118 128 132 146 157 157 152 157 159 153 153 155 157 154 151 151 142 130 123 126 128 127 126 127 131 129 128 128 126 122 120 121 123
75 62 56 40 18 12 15 54 79 102 142 142 139 135 135 135 123 118 117 122 127 115 109 105 110 110 97 95 98 104 120 131 134 133 128 129 131 130 133 136 137 135 135 133 130 127 122 117 108 95 82 79 80 85 81 74 70 61 57 80 109 100 105 119 139 140 138 149 150 152 154 155 158 157 154 155 156 150 147 149 141 131 129 131 132 129 128 131 134 134 131 130 130 126 121 120 122
59 45 37 3 1 6 25 99 100 104 138 141 137 136 137 135 127 127 126 125 119 111 107 100 117 115 103 107 107 112 130 133 134 133 131 131 132 134 136 136 134 132 132 132 130 124 117 108 94 81 73 73 80 87 80 72 73 78 93 125 129 118 117 122 139 141 142 145 140 145 150 147 149 157 155 147 146 145 144 146 138 131 133 133 131 130 130 134 137 137 134 132 133 129 123 121 122
32 11 3 357 13 26 81 116 115 117 136 138 133 137 141 137 131 130 126 125 118 115 111 109 130 116 109 120 115 120 131 129 131 130 133 132 132 137 138 137 135 134 133 132 126 118 112 102 88 83 83 81 85 84 86 93 97 103 110 122 124 123 127 129 139 143 144 143 138 142 145 143 145 151 148 140 139 140 142 142 133 130 137 135 132 131 132 135 137 138 136 135 134 131 125 123 122
345 329 344 357 12 18 97 126 131 127 133 138 138 143 143 138 132 131 129 127 121 118 115 122 139 121 117 123 116 124 131 127 128 128 133 131 133 138 137 136 136 135 133 129 121 115 111 105 98 92 93 92 91 95 104 116 111 103 104 112 117 120 125 133 144 146 147 146 139 138 138 136 139 143 142 141 141 140 143 139 129 131 138 137 134 133 133 135 137 136 134 132 129 127 123 120 118
306 322 337 343 357 357 135 139 134 130 136 143 145 146 143 138 133 131 130 125 120 117 118 132 140 129 129 125 120 130 130 127 128 128 132 131 134 136 133 132 132 131 127 123 117 114 109 99 94 90 94 95 98 106 109 106 98 95 102 111 116 117 122 133 144 146 149 147 139 136 132 130 134 139 141 142 139 138 141 139 131 131 138 138 135 135 134 135 136 134 130 124 123 122 119 115 109
326 331 329 329 349 349 189 153 132 133 140 144 145 145 143 141 134 131 130 124 123 122 127 139 135 133 133 127 127 132 130 130 130 130 131 132 135 133 132 131 130 129 124 118 109 101 95 88 91 100 104 103 105 105 99 93 92 94 102 111 113 117 128 135 133 136 147 149 141 134 125 127 134 135 135 136 133 134 135 136 134 133 138 138 136 136 135 135 135 131 124 120 120 119 113 107 100
309 308 323 330 342 15 173 149 132 138 145 148 150 148 146 144 137 135 131 125 126 124 127 134 135 140 137 130 132 134 134 134 133 133 133 135 135 135 135 133 129 128 125 116 106 96 87 86 94 105 109 110 107 100 93 89 90 93 101 110 116 124 129 130 131 132 141 149 139 127 125 129 132 129 127 126 127 131 131 133 134 134 137 138 137 138 135 134 133 126 119 117 117 114 108 101 94
294 297 315 335 349 42 158 147 135 146 153 154 157 151 147 143 141 139 131 127 128 129 135 141 143 147 139 133 135 138 139 138 138 138 136 137 138 139 136 130 127 125 122 110 103 99 93 94 99 105 108 107 103 95 91 87 88 94 103 109 114 121 118 117 127 125 125 132 124 119 128 128 125 124 122 123 124 128 131 132 133 133 137 138 140 140 136 133 129 123 118 117 115 110 105 100 94
303 304 309 330 3 33 151 156 143 150 156 156 160 154 148 146 144 139 133 131 129 130 137 142 148 151 145 139 138 143 144 141 142 140 139 139 137 138 133 127 127 123 116 106 100 97 96 100 103 107 106 103 100 96 94 91 91 99 106 104 104 108 103 104 113 113 114 114 106 112 125 121 119 123 124 126 127 127 129 132 132 133 137 140 142 140 135 131 127 124 121 119 115 110 106 102 97
293 312 314 325 5 40 104 168 155 154 156 159 164 157 151 150 141 138 143 137 126 130 137 140 151 153 148 145 145 151 148 144 144 142 141 139 135 136 132 128 127 117 108 104 99 94 97 103 105 107 104 103 101 99 101 99 98 103 105 102 100 102 100 102 107 107 109 109 104 113 122 117 121 125 126 130 131 129 127 130 133 134 138 141 142 138 133 131 128 125 123 120 117 112 107 103 97
290 307 305 321 0 41 74 159 163 164 160 162 165 156 153 152 142 144 149 136 126 135 140 137 150 151 146 150 152 152 150 146 145 143 142 139 137 137 135 132 124 112 103 105 103 94 97 100 103 106 106 106 104 102 103 100 100 99 96 96 95 97 97 98 105 104 103 107 110 118 121 119 125 128 128 132 132 130 127 130 134 135 137 138 138 134 130 129 127 126 125 121 116 111 107 102 95
289 294 296 327 350 4 83 145 170 178 167 164 165 158 159 157 149 151 145 135 138 139 136 135 142 143 146 155 154 152 153 149 146 145 143 142 140 138 138 134 126 122 111 104 101 98 101 99 101 106 109 110 106 105 104 101 99 95 91 88 89 94 95 96 102 101 99 104 110 116 119 121 126 127 127 129 131 130 129 130 132 133 133 132 131 129 128 128 126 126 124 120 116 111 104 99 94
284 294 308 332 327 319 343 174 194 195 180 170 167 163 164 160 151 152 144 141 145 133 128 128 128 140 156 162 155 153 155 149 146 145 143 144 142 139 139 135 129 126 115 101 95 99 102 99 101 107 114 115 109 106 106 104 99 94 90 86 89 93 92 97 102 101 101 105 108 110 115 119 122 123 121 123 127 129 130 130 130 129 127 127 126 127 129 129 127 125 123 120 115 105 96 92 91
290 300 314 320 312 309 299 251 220 201 188 174 169 166 162 158 151 151 145 143 143 131 128 129 135 155 168 160 153 154 156 150 145 144 144 145 144 141 139 133 130 127 121 115 109 106 101 98 102 109 116 117 110 107 106 104 99 96 94 91 94 93 91 97 103 104 107 109 108 110 113 115 119 121 119 119 124 128 131 131 130 129 127 127 128 129 130 130 129 127 124 118 109 99 93 89 87
302 302 309 312 315 309 296 257 213 196 187 174 165 162 156 156 152 149 145 142 142 135 135 143 154 165 163 154 154 156 156 152 147 146 147 147 146 144 140 134 134 137 129 119 116 112 105 105 105 102 107 107 106 110 109 103 98 97 100 103 103 102 101 100 101 105 109 111 112 112 114 115 117 119 119 119 122 127 130 130 130 129 128 128 130 129 129 131 130 126 121 111 102 97 94 90 88
300 303 316 321 318 304 291 224 192 184 178 167 156 152 152 153 150 148 150 145 139 136 144 157 166 162 153 152 154 155 157 154 150 149 149 150 151 146 143 136 134 140 130 117 117 113 108 110 108 102 104 105 104 110 109 105 103 100 102 111 112 110 110 105 103 106 111 113 114 114 116 115 116 118 119 119 119 121 124 127 129 128 125 124 123 122 124 128 128 121 114 105 97 94 93 89 89
295 304 322 332 331 306 269 193 175 167 161 156 150 147 148 151 151 151 151 150 145 142 152 165 166 156 150 150 152 155 158 155 153 153 152 153 154 149 146 138 134 136 129 124 120 112 109 110 108 103 107 110 109 106 106 108 109 105 103 108 110 110 114 111 105 108 114 117 117 117 118 116 118 120 119 118 116 115 118 121 121 121 120 117 115 114 115 118 120 114 106 100 97 96 93 88 87
298 311 324 345 4 34 148 162 156 152 151 149 144 140 146 150 150 150 150 157 154 146 151 162 162 156 150 148 152 156 157 157 157 157 154 153 154 151 146 138 136 134 129 127 121 115 112 108 103 101 105 106 105 106 108 112 110 106 106 106 104 107 114 115 111 114 119 121 122 119 117 117 119 120 118 116 113 112 112 111 111 112 111 108 107 105 105 109 110 104 99 98 97 94 91 93 99
290 305 327 23 71 97 123 141 146 149 152 150 143 141 150 153 150 150 153 155 152 147 148 159 163 157 152 149 153 158 160 159 158 157 155 154 154 150 146 141 136 135 132 129 126 124 119 110 109 111 109 100 106 118 120 117 114 110 109 108 106 105 108 110 112 116 118 121 124 121 117 117 118 119 117 112 111 109 107 108 107 106 105 103 102 100 101 104 102 99 99 95 92 93 93 98 106
279 291 326 87 112 115 126 137 144 149 150 149 146 148 150 150 153 154 155 150 148 148 147 158 162 155 153 151 155 161 159 157 156 153 152 150 148 149 150 144 138 136 133 132 130 128 126 119 118 123 121 112 118 128 124 115 116 116 111 110 110 106 105 106 109 114 116 119 122 122 120 119 119 119 114 110 109 107 108 109 107 104 103 103 102 101 100 100 100 99 98 93 92 101 100 98 103
263 277 306 141 130 126 133 137 143 145 147 150 148 152 148 145 152 151 153 150 148 148 148 157 157 154 154 152 158 158 154 156 155 152 152 151 152 159 155 145 141 137 135 135 133 129 131 130 122 127 126 120 122 127 125 119 119 119 114 113 112 110 108 108 111 116 118 120 121 122 124 125 124 122 117 112 107 105 107 107 104 104 103 102 100 100 100 101 102 101 99 99 101 106 104 102 108
268 277 292 150 131 127 135 140 149 148 152 155 153 155 147 146 152 151 154 148 148 149 152 157 154 155 154 154 160 153 153 160 161 159 156 159 164 165 156 147 145 139 140 139 137 137 137 135 126 120 112 111 119 126 124 120 118 117 115 115 114 112 111 112 116 119 121 122 122 124 127 128 126 122 118 113 108 107 108 105 102 102 100 100 99 98 102 104 104 104 105 107 106 107 108 111 113
258 254 155 135 126 129 136 147 157 154 161 161 156 156 147 150 156 157 157 147 147 151 154 156 155 158 154 159 163 153 159 165 167 166 161 169 169 161 158 152 149 146 148 144 142 145 141 139 132 118 98 94 106 115 115 111 112 117 118 120 120 113 110 114 119 123 125 125 126 128 129 128 126 122 118 114 112 111 109 105 102 101 100 101 102 102 104 104 106 109 111 113 112 112 115 118 115
239 248 161 123 125 146 147 153 158 156 166 164 159 156 149 158 159 163 162 148 148 154 157 156 158 160 157 167 166 155 168 171 172 172 167 175 164 157 163 152 157 159 151 146 147 147 142 141 136 128 118 108 105 107 109 109 113 118 119 122 124 118 115 116 120 126 129 131 132 134 133 131 128 124 122 118 115 115 112 108 107 107 109 110 110 110 110 112 115 115 115 116 118 116 118 122 118
243 262 212 141 137 165 164 161 164 161 167 165 162 158 158 171 166 169 165 149 151 158 161 159 161 162 161 173 166 161 177 175 172 172 173 175 159 160 159 154 172 163 149 150 150 147 142 143 137 133 129 123 119 115 116 116 116 118 117 119 121 120 122 121 123 126 129 133 134 134 133 132 128 125 124 123 121 120 117 116 118 119 120 120 117 115 117 122 121 120 120 117 118 119 120 127 123
236 235 203 183 172 177 176 179 177 167 168 169 165 161 172 178 170 173 169 154 153 161 164 161 164 164 167 176 167 169 180 174 171 174 178 170 160 163 150 164 186 156 154 159 150 148 144 144 139 136 138 134 130 127 126 122 121 121 118 118 118 119 122 124 125 127 129 132 132 131 132 132 130 129 127 127 125 123 122 122 124 123 123 124 121 120 124 127 125 125 125 121 122 123 123 125 122
222 207 195 198 195 177 179 197 197 182 181 177 169 167 180 179 173 175 174 159 154 164 168 164 169 167 172 174 165 176 179 172 175 178 179 165 166 171 153 173 191 159 164 163 155 155 146 145 142 140 144 142 137 135 132 127 126 124 122 121 118 118 122 126 128 130 132 132 133 132 134 135 135 135 133 131 128 126 127 126 127 126 126 126 125 128 131 130 129 130 129 126 129 131 129 123 118
219 218 214 197 190 179 183 211 212 198 197 191 182 181 183 179 177 176 176 164 156 168 171 167 173 169 174 172 165 182 178 169 176 178 180 166 172 181 164 172 184 173 172 164 164 163 154 151 148 147 147 146 143 138 136 133 131 126 126 126 122 121 122 126 130 132 134 134 135 136 137 140 139 138 136 135 132 130 131 130 131 130 127 127 126 130 135 134 133 135 134 130 134 136 132 124 120
214 219 225 207 197 196 197 208 204 201 205 202 196 193 190 184 181 178 180 170 159 170 173 171 175 170 176 171 167 185 175 167 175 179 183 171 178 189 172 169 179 184 175 168 175 167 163 159 151 152 149 150 147 142 140 136 133 130 131 130 127 128 125 127 129 132 136 137 139 140 140 141 140 140 137 135 134 131 132 132 132 130 128 128 127 130 135 134 135 137 138 136 136 139 138 132 125
224 212 216 224 211 204 211 209 206 208 205 201 197 195 197 192 186 180 182 176 165 172 175 174 175 173 178 170 172 188 174 168 178 181 183 177 186 191 179 180 184 187 180 175 179 169 168 162 154 156 150 152 149 145 143 136 135 134 135 134 131 132 130 129 129 132 138 140 143 142 141 140 140 140 136 136 136 132 134 134 131 128 128 126 125 131 134 135 136 137 141 140 136 137 141 138 129
284 233 225 235 217 205 224 226 228 215 202 202 201 197 195 192 188 183 182 182 174 175 178 177 176 177 179 171 177 190 174 171 182 184 181 179 194 196 188 193 190 191 187 178 177 169 170 167 160 157 151 154 152 148 146 138 137 136 138 139 135 138 137 134 132 135 139 142 145 145 143 141 139 139 137 137 136 133 133 131 130 128 126 123 124 130 133 135 137 136 142 142 135 136 138 136 132
288 267 247 218 205 224 235 219 231 220 206 207 205 199 197 195 192 185 183 185 183 180 179 180 180 178 178 175 182 190 176 174 184 185 182 183 197 201 194 196 196 198 190 177 178 173 172 172 167 161 156 157 154 152 149 141 139 138 140 141 142 145 144 142 140 139 142 145 148 146 145 143 140 140 140 139 136 134 131 127 129 128 126 128 129 131 131 135 138 137 143 142 135 141 141 136 135
262 269 270 220 200 219 215 211 226 207 205 212 208 199 199 198 195 188 185 188 189 186 182 181 183 181 178 178 185 188 176 177 187 186 184 189 198 201 198 199 201 202 190 182 185 178 176 176 172 167 161 160 158 158 157 150 144 143 145 147 149 150 149 152 150 147 149 151 152 150 149 147 142 143 142 140 137 135 133 129 130 129 129 133 132 132 133 137 141 139 143 143 137 143 144 137 135
253 256 264 256 213 176 162 183 179 175 198 221 215 204 202 201 197 193 190 191 191 192 188 181 182 186 181 178 187 190 178 182 192 187 187 195 199 200 199 201 203 202 192 189 189 184 183 178 176 174 167 163 163 163 164 161 156 154 154 153 151 152 157 164 163 158 157 157 158 156 153 150 147 147 144 143 142 141 139 137 137 134 134 137 134 134 137 140 143 143 144 144 143 147 141 134 140
246 244 253 253 206 188 169 167 176 177 184 211 207 201 208 208 204 201 198 196 194 195 192 181 181 189 186 179 186 192 184 188 196 190 190 196 200 202 198 200 204 202 195 193 193 189 188 184 180 179 174 170 169 168 167 167 165 162 161 158 155 157 163 168 169 166 162 164 166 163 159 157 154 152 151 151 152 151 146 143 146 142 141 143 140 139 141 144 149 150 148 147 153 159 151 146 153
239 246 253 257 177 190 171 159 173 169 166 187 179 181 209 211 205 204 202 201 199 201 198 187 185 190 189 182 185 192 189 193 196 191 192 194 201 206 199 200 204 200 198 197 196 194 191 190 185 183 181 178 177 173 169 168 167 166 165 161 158 159 162 167 172 169 167 172 174 171 166 164 163 161 160 163 163 158 150 153 156 151 149 149 146 145 145 149 154 155 157 157 160 169 167 162 159
234 239 250 261 267 146 143 155 163 154 172 197 179 175 221 220 211 208 204 202 200 203 206 201 193 190 191 187 187 191 192 197 196 191 194 193 200 207 199 202 205 198 200 199 198 198 195 193 191 188 187 184 182 178 172 169 171 171 165 162 161 161 165 170 172 168 170 176 178 177 173 169 168 168 168 171 173 161 155 165 164 154 156 156 155 158 156 159 159 159 164 163 164 175 179 174 164
232 230 243 254 250 166 134 165 172 163 197 226 210 196 202 214 213 209 207 204 199 201 206 205 198 193 193 190 190 191 192 200 199 192 196 196 200 206 198 200 203 197 199 199 199 200 198 197 196 195 193 189 187 183 179 175 175 176 169 167 169 170 172 172 173 173 173 175 177 178 176 174 173 173 174 175 177 171 167 172 166 161 165 164 166 169 167 168 160 158 166 164 172 181 181 185 178
230 234 253 269 265 224 198 215 215 214 216 223 225 212 203 208 212 210 207 206 204 204 205 203 201 201 199 192 190 192 192 202 202 192 196 200 203 207 199 198 201 199 200 199 201 201 199 200 200 201 200 196 191 187 186 182 179 181 175 174 177 178 179 176 175 179 179 176 179 179 178 179 179 179 180 181 181 180 182 181 174 177 178 174 180 180 176 176 167 168 174 170 176 182 178 181 182
234 263 280 290 305 253 215 231 241 237 221 202 200 212 224 221 213 210 201 203 209 208 207 205 204 206 205 197 192 193 194 202 204 196 198 201 204 208 202 198 200 201 201 198 203 204 200 203 206 206 205 202 197 190 189 188 184 185 181 180 183 182 184 182 177 181 184 182 182 183 180 180 183 186 186 189 189 186 189 191 187 191 190 186 189 188 184 183 181 180 178 175 178 182 183 182 182
238 263 266 266 297 264 220 237 255 261 245 223 208 212 227 198 192 203 195 200 211 209 208 210 208 207 208 203 197 194 195 202 206 202 204 204 203 207 204 200 201 203 202 198 204 208 202 207 211 210 208 206 201 194 193 194 190 188 187 186 188 186 187 187 183 185 187 185 184 184 182 182 186 190 190 190 192 191 193 197 197 196 199 196 191 192 192 190 189 184 176 180 184 183 185 188 189
234 251 266 261 268 263 248 255 269 284 256 238 235 222 228 208 188 205 209 214 216 209 206 208 210 210 210 207 201 196 195 203 206 201 205 208 204 205 204 201 204 204 202 201 206 209 204 206 211 211 211 208 204 198 196 198 196 193 191 191 193 193 193 190 187 192 193 189 188 186 186 190 190 192 195 193 191 194 196 201 205 203 204 203 196 197 200 197 194 187 182 186 189 189 188 188 192
228 236 253 256 248 241 244 243 249 268 255 241 244 235 240 235 197 208 224 227 214 210 206 204 207 210 211 209 205 202 198 203 206 199 203 210 207 205 202 200 205 208 207 206 209 210 205 206 209 212 214 212 208 203 199 200 200 198 195 194 197 199 199 192 190 198 200 195 195 193 193 196 196 197 201 199 197 200 202 205 209 211 211 212 208 206 208 210 207 198 195 197 194 196 195 190 190
220 223 241 245 240 230 229 230 233 245 246 239 245 245 244 241 215 207 210 209 208 211 210 207 208 209 210 209 209 210 203 200 204 202 204 211 211 207 202 199 203 208 209 210 211 211 207 208 210 211 214 214 211 207 203 203 203 201 199 197 198 200 201 198 196 200 201 200 200 201 203 203 205 207 207 206 204 205 208 210 211 214 214 215 217 215 213 217 216 207 207 210 206 205 202 198 197
207 211 224 228 240 233 219 225 229 244 249 235 228 241 227 197 217 203 188 201 213 212 209 208 210 211 212 209 206 209 206 200 202 203 203 209 212 209 204 203 205 207 209 211 213 212 209 209 210 210 212 213 212 209 206 205 205 205 202 202 200 198 200 202 201 201 202 203 203 205 210 209 211 212 210 211 211 209 212 215 215 216 219 221 221 219 221 225 222 216 214 214 215 217 212 211 212
206 218 225 227 238 243 243 235 221 240 251 228 210 218 204 167 184 188 166 174 203 214 209 203 204 208 211 209 205 205 205 203 203 202 201 205 211 212 208 206 208 208 208 211 215 215 210 209 212 212 211 212 211 211 209 206 207 208 206 205 202 198 199 202 204 204 203 205 206 209 213 214 216 217 215 217 218 215 217 222 223 221 223 229 228 226 229 234 233 230 227 222 220 221 219 222 225
206 212 224 231 232 241 264 274 274 283 284 244 203 164 128 156 151 157 166 166 184 202 207 204 199 199 204 207 207 206 206 206 204 201 201 203 210 214 211 208 209 208 207 209 216 219 213 209 214 214 212 213 212 211 212 210 209 212 211 208 204 200 199 202 205 205 205 208 210 213 216 216 220 224 223 224 223 218 216 220 224 224 224 227 229 231 231 235 237 236 234 232 228 227 227 230 233
200 196 215 228 232 245 261 267 274 285 299 269 225 140 129 149 146 160 175 175 184 193 196 197 193 192 196 201 205 205 207 209 207 202 200 202 209 213 211 211 211 209 209 210 215 220 216 211 213 215 213 214 214 212 213 213 212 214 213 210 208 205 204 205 207 207 210 213 213 216 220 217 220 226 227 228 227 223 220 220 222 224 226 226 226 230 231 234 238 237 239 241 237 237 237 238 238
231 208 210 215 224 243 259 266 261 256 259 253 233 160 146 162 162 164 173 180 190 190 185 189 188 188 192 196 202 204 206 209 209 205 201 203 210 211 209 213 214 210 211 213 215 218 217 213 214 216 216 216 215 215 214 214 215 215 215 213 211 209 209 210 210 210 214 218 216 218 222 221 222 225 226 227 228 228 226 225 226 226 227 228 229 231 231 233 237 235 239 247 248 249 249 249 248
243 250 243 215 213 225 243 258 265 251 252 249 231 181 152 163 174 175 177 179 189 188 185 193 193 189 191 196 202 207 208 208 209 208 204 206 211 209 208 213 213 211 212 214 217 218 216 215 214 215 217 217 215 215 215 214 215 216 216 215 214 213 213 215 216 214 215 220 222 221 223 224 224 226 227 228 231 233 230 226 225 226 229 233 234 235 233 234 235 234 239 248 252 254 253 252 252
235 253 263 236 219 213 219 227 244 257 268 265 239 199 123 125 164 182 184 178 189 201 198 198 198 196 196 200 205 210 211 212 212 209 209 213 214 209 207 210 210 210 211 214 218 219 216 215 215 216 217 216 215 214 214 214 213 214 215 215 215 214 215 219 220 219 218 222 225 224 225 225 225 228 229 228 231 236 234 228 224 224 228 232 235 235 236 236 235 233 239 249 251 250 252 252 248
219 230 239 234 220 215 220 220 227 241 265 292 267 163 84 131 158 176 192 184 191 209 207 198 197 196 195 200 208 212 213 218 218 213 212 216 216 212 207 205 207 208 210 214 217 216 216 214 212 215 216 215 214 214 214 214 213 212 214 215 216 216 216 220 223 224 223 225 226 225 227 229 230 234 236 232 231 234 236 234 230 229 228 231 235 235 238 242 241 237 239 245 250 249 250 251 249
213 218 228 237 221 211 228 228 217 225 244 266 275 71 97 146 162 174 194 192 191 202 203 197 195 193 195 199 207 215 217 220 219 214 214 216 218 217 209 202 205 211 213 216 218 215 215 213 211 214 216 214 214 214 215 215 214 213 214 215 217 217 217 219 223 226 227 230 232 230 232 235 236 237 238 237 234 233 237 238 236 237 234 233 238 240 244 249 250 248 247 246 249 251 250 248 249